Millville Municipal Airport

Jump to: basic info | weather | frequencies | runways | comments

Related pages: nearby airports | nearby navaids | notams | map

Basic information (top)

Codes: KMIV MIV
Location: lon 39.367802, lat -75.072197, elev 85 ft / 26 m msl
Status: medium_airport
Scheduled airline service: no
Links: Wikipedia Mobile

Weather (top)

Current conditions (rec'd 2014/08/22 04:54Z):

KMIV 220454Z AUTO VRB04KT 10SM FEW047 BKN075 BKN110 20/18 A2999

Airport forecast (rec'd 2014/08/21 00:33Z):

TAF KMIV 212327Z 2200/2224 15004KT P6SM SCT040 
     FM220500 VRB03KT P6SM SCT025 BKN040 
      TEMPO 2206/2209 4SM BR 
     FM220900 09004KT 3SM -SHRA BR OVC020 
     FM221500 10008KT P6SM BKN040

Frequencies (top)

Verify before use: may be inaccurate or out of date.

A/D: 124.6 MHz (APP/DEP)
ASOS: 128.125 MHz (ASOS)
CTAF: 123.65 MHz (CTAF)
RDO: 123.65 MHz (RDO)
UNIC: 123 MHz (UNICOM)

Runways (top)

10/28: 6,002 x 150 ft (1,829 x 46 m) — paved — lighted

14/32: 5,057 x 150 ft (1,541 x 46 m) — paved — lighted

Latest comments (top)

No comments yet for Millville Municipal Airport

More... (top)

See also NOTAMs and nearby airports and navaids, or visit the Millville Municipal Airport page at the main OurAirports website..